Time,TemperatureF,DewpointF,PressureIn,WindDirection,WindDirectionDegrees,WindSpeedMPH,WindSpeedGustMPH,Humidity,HourlyPrecipIn,Conditions,Clouds,dailyrainin,SoftwareType,DateUTC
2017-10-17 00:01:00,41.7,39.5,30.32,SSE,147,0.0,3.0,92,0.00,,,0.00,Wunderground v.1.15,2017-10-17 04:01:00,
2017-10-17 00:06:00,41.7,39.5,30.32,SSE,147,0.0,3.0,92,0.00,,,0.00,Wunderground v.1.15,2017-10-17 04:06:00,
2017-10-17 00:11:00,41.6,39.4,30.32,SSE,147,0.0,3.0,92,0.00,,,0.00,Wunderground v.1.15,2017-10-17 04:11:00,
2017-10-17 00:17:00,41.3,39.2,30.32,SSE,147,0.0,3.0,92,0.00,,,0.00,Wunderground v.1.15,2017-10-17 04:17:00,
2017-10-17 00:22:00,41.1,39.0,30.32,SSE,147,0.0,3.0,92,0.00,,,0.00,Wunderground v.1.15,2017-10-17 04:22:00,
2017-10-17 00:27:00,41.1,39.0,30.32,SSE,147,0.0,3.0,92,0.00,,,0.00,Wunderground v.1.15,2017-10-17 04:27:00,
2017-10-17 00:32:00,41.1,39.2,30.32,SSE,147,0.0,3.0,93,0.00,,,0.00,Wunderground v.1.15,2017-10-17 04:32:00,
2017-10-17 00:37:00,41.1,39.2,30.32,SSE,147,0.0,3.0,93,0.00,,,0.00,Wunderground v.1.15,2017-10-17 04:37:00,
2017-10-17 00:43:00,41.0,39.1,30.32,SSE,147,0.0,3.0,93,0.00,,,0.00,Wunderground v.1.15,2017-10-17 04:43:00,
2017-10-17 00:48:00,41.1,39.2,30.32,SSE,147,0.0,3.0,93,0.00,,,0.00,Wunderground v.1.15,2017-10-17 04:48:00,
2017-10-17 00:53:00,41.1,39.2,30.32,SSE,147,0.0,3.0,93,0.00,,,0.00,Wunderground v.1.15,2017-10-17 04:53:00,
2017-10-17 00:58:00,41.0,39.1,30.32,SSE,147,0.0,3.0,93,0.00,,,0.00,Wunderground v.1.15,2017-10-17 04:58:00,
2017-10-17 01:03:00,41.2,39.3,30.32,SSE,147,0.0,3.0,93,0.00,,,0.00,Wunderground v.1.15,2017-10-17 05:03:00,
2017-10-17 01:08:00,41.4,39.8,30.32,SSE,147,2.0,3.0,94,0.00,,,0.00,Wunderground v.1.15,2017-10-17 05:08:00,
2017-10-17 01:14:00,41.2,39.3,30.32,SSE,147,2.0,3.0,93,0.00,,,0.00,Wunderground v.1.15,2017-10-17 05:14:00,
2017-10-17 01:19:00,40.9,39.0,30.32,SSE,147,2.0,4.0,93,0.00,,,0.00,Wunderground v.1.15,2017-10-17 05:19:00,
2017-10-17 01:24:00,40.7,39.1,30.32,SSE,147,3.0,4.0,94,0.00,,,0.00,Wunderground v.1.15,2017-10-17 05:24:00,
2017-10-17 01:29:00,40.8,39.2,30.32,SSE,147,4.0,5.0,94,0.00,,,0.00,Wunderground v.1.15,2017-10-17 05:29:00,
2017-10-17 01:34:00,41.0,39.4,30.32,SSE,147,4.0,5.0,94,0.00,,,0.00,Wunderground v.1.15,2017-10-17 05:34:00,
2017-10-17 01:39:00,41.1,39.5,30.32,SSE,147,4.0,5.0,94,0.00,,,0.00,Wunderground v.1.15,2017-10-17 05:39:00,
2017-10-17 01:44:00,41.0,39.4,30.32,SSE,147,3.0,4.0,94,0.00,,,0.00,Wunderground v.1.15,2017-10-17 05:44:00,
2017-10-17 01:49:00,40.7,38.8,30.32,SSE,147,1.0,4.0,93,0.00,,,0.00,Wunderground v.1.15,2017-10-17 05:49:00,
2017-10-17 01:55:00,40.5,38.6,30.32,SSE,147,0.0,3.0,93,0.00,,,0.00,Wunderground v.1.15,2017-10-17 05:55:00,
2017-10-17 02:00:00,40.1,38.2,30.32,SSE,147,0.0,3.0,93,0.00,,,0.00,Wunderground v.1.15,2017-10-17 06:00:00,
2017-10-17 02:05:00,40.0,38.1,30.32,SSE,147,0.0,3.0,93,0.00,,,0.00,Wunderground v.1.15,2017-10-17 06:05:00,
2017-10-17 02:10:00,39.9,38.0,30.32,SSE,147,0.0,3.0,93,0.00,,,0.00,Wunderground v.1.15,2017-10-17 06:10:00,
2017-10-17 02:15:00,39.7,38.1,30.32,SSE,147,0.0,3.0,94,0.00,,,0.00,Wunderground v.1.15,2017-10-17 06:15:00,
2017-10-17 02:20:00,39.7,38.1,30.32,SSE,147,0.0,3.0,94,0.00,,,0.00,Wunderground v.1.15,2017-10-17 06:20:00,
2017-10-17 02:25:00,39.5,37.9,30.32,SSE,147,1.0,3.0,94,0.00,,,0.00,Wunderground v.1.15,2017-10-17 06:25:00,
2017-10-17 02:30:00,39.3,37.7,30.32,SSE,147,3.0,3.0,94,0.00,,,0.00,Wunderground v.1.15,2017-10-17 06:30:00,
2017-10-17 02:35:00,39.4,37.8,30.32,SSE,147,3.0,3.0,94,0.00,,,0.00,Wunderground v.1.15,2017-10-17 06:35:00,
2017-10-17 02:41:00,39.3,37.7,30.32,SSE,147,2.0,3.0,94,0.00,,,0.00,Wunderground v.1.15,2017-10-17 06:41:00,
2017-10-17 02:46:00,39.3,37.7,30.32,SSE,147,2.0,3.0,94,0.00,,,0.00,Wunderground v.1.15,2017-10-17 06:46:00,
2017-10-17 02:51:00,39.2,37.6,30.32,SSE,147,1.0,3.0,94,0.00,,,0.00,Wunderground v.1.15,2017-10-17 06:51:00,
2017-10-17 02:56:00,39.2,37.6,30.32,SSE,147,0.0,3.0,94,0.00,,,0.00,Wunderground v.1.15,2017-10-17 06:56:00,
2017-10-17 03:01:00,39.2,37.6,30.32,SSE,147,0.0,3.0,94,0.00,,,0.00,Wunderground v.1.15,2017-10-17 07:01:00,
2017-10-17 03:06:00,39.1,37.5,30.32,SSE,147,0.0,3.0,94,0.00,,,0.00,Wunderground v.1.15,2017-10-17 07:06:00,
2017-10-17 03:11:00,39.1,37.5,30.32,SSE,147,0.0,3.0,94,0.00,,,0.00,Wunderground v.1.15,2017-10-17 07:11:00,
2017-10-17 03:16:00,39.1,37.5,30.32,SSE,147,0.0,3.0,94,0.00,,,0.00,Wunderground v.1.15,2017-10-17 07:16:00,
2017-10-17 03:22:00,38.9,37.3,30.32,SSE,147,0.0,3.0,94,0.00,,,0.00,Wunderground v.1.15,2017-10-17 07:22:00,
2017-10-17 03:27:00,38.9,37.3,30.32,SSE,147,0.0,3.0,94,0.00,,,0.00,Wunderground v.1.15,2017-10-17 07:27:00,
2017-10-17 03:32:00,38.9,37.3,30.32,SSE,147,1.0,3.0,94,0.00,,,0.00,Wunderground v.1.15,2017-10-17 07:32:00,
2017-10-17 03:38:00,38.8,37.2,30.32,SSE,147,2.0,3.0,94,0.00,,,0.00,Wunderground v.1.15,2017-10-17 07:38:00,
2017-10-17 03:43:00,38.7,37.1,30.32,SSE,147,1.0,3.0,94,0.00,,,0.00,Wunderground v.1.15,2017-10-17 07:43:00,
2017-10-17 03:49:00,38.6,37.0,30.32,SSE,147,1.0,3.0,94,0.00,,,0.00,Wunderground v.1.15,2017-10-17 07:49:00,
2017-10-17 03:54:00,38.5,36.9,30.32,SSE,147,2.0,3.0,94,0.00,,,0.00,Wunderground v.1.15,2017-10-17 07:54:00,
2017-10-17 03:59:00,38.7,37.4,30.32,SSE,147,2.0,3.0,95,0.00,,,0.00,Wunderground v.1.15,2017-10-17 07:59:00,
2017-10-17 04:04:00,38.7,37.1,30.32,SSE,147,1.0,3.0,94,0.00,,,0.00,Wunderground v.1.15,2017-10-17 08:04:00,
2017-10-17 04:10:00,38.6,37.0,30.33,SSE,147,2.0,3.0,94,0.00,,,0.00,Wunderground v.1.15,2017-10-17 08:10:00,
2017-10-17 04:15:00,38.6,37.3,30.32,SSE,147,3.0,3.0,95,0.00,,,0.00,Wunderground v.1.15,2017-10-17 08:15:00,
2017-10-17 04:20:00,38.6,37.3,30.32,SSE,147,2.0,3.0,95,0.00,,,0.00,Wunderground v.1.15,2017-10-17 08:20:00,
2017-10-17 04:25:00,38.7,37.4,30.32,SSE,147,2.0,3.0,95,0.00,,,0.00,Wunderground v.1.15,2017-10-17 08:25:00,
2017-10-17 04:30:00,38.7,37.4,30.32,SSE,147,2.0,3.0,95,0.00,,,0.00,Wunderground v.1.15,2017-10-17 08:30:00,
2017-10-17 04:35:00,38.6,37.3,30.32,SSE,147,2.0,3.0,95,0.00,,,0.00,Wunderground v.1.15,2017-10-17 08:35:00,
2017-10-17 04:40:00,38.6,37.3,30.33,SSE,147,1.0,3.0,95,0.00,,,0.00,Wunderground v.1.15,2017-10-17 08:40:00,
2017-10-17 04:46:00,38.5,37.2,30.33,SSE,147,1.0,3.0,95,0.00,,,0.00,Wunderground v.1.15,2017-10-17 08:46:00,
2017-10-17 04:51:00,38.5,37.2,30.33,SSE,147,2.0,3.0,95,0.00,,,0.00,Wunderground v.1.15,2017-10-17 08:51:00,
2017-10-17 04:56:00,38.3,37.0,30.33,SSE,147,2.0,3.0,95,0.00,,,0.00,Wunderground v.1.15,2017-10-17 08:56:00,
2017-10-17 05:01:00,38.2,36.9,30.33,SSE,147,1.0,3.0,95,0.00,,,0.00,Wunderground v.1.15,2017-10-17 09:01:00,
2017-10-17 05:06:00,38.1,36.8,30.33,SSE,147,0.0,3.0,95,0.00,,,0.00,Wunderground v.1.15,2017-10-17 09:06:00,
2017-10-17 05:11:00,38.3,37.0,30.33,SSE,147,0.0,3.0,95,0.00,,,0.00,Wunderground v.1.15,2017-10-17 09:11:00,
2017-10-17 05:16:00,38.9,37.9,30.34,SSE,147,1.0,3.0,96,0.00,,,0.00,Wunderground v.1.15,2017-10-17 09:16:00,
2017-10-17 05:21:00,39.1,37.8,30.34,SSE,147,2.0,3.0,95,0.00,,,0.00,Wunderground v.1.15,2017-10-17 09:21:00,
2017-10-17 05:26:00,39.1,37.8,30.34,SSE,147,2.0,3.0,95,0.00,,,0.00,Wunderground v.1.15,2017-10-17 09:26:00,
2017-10-17 05:31:00,39.0,37.7,30.34,SSE,147,2.0,3.0,95,0.00,,,0.00,Wunderground v.1.15,2017-10-17 09:31:00,
2017-10-17 05:36:00,38.8,37.5,30.34,SSE,147,3.0,4.0,95,0.00,,,0.00,Wunderground v.1.15,2017-10-17 09:36:00,
2017-10-17 05:42:00,38.4,37.1,30.34,SSE,147,3.0,3.0,95,0.00,,,0.00,Wunderground v.1.15,2017-10-17 09:42:00,
2017-10-17 05:47:00,38.4,37.1,30.34,SSE,147,3.0,4.0,95,0.00,,,0.00,Wunderground v.1.15,2017-10-17 09:47:00,
2017-10-17 05:52:00,38.6,37.3,30.34,SSE,147,3.0,3.0,95,0.00,,,0.00,Wunderground v.1.15,2017-10-17 09:52:00,
2017-10-17 05:57:00,38.6,37.3,30.35,SSE,147,2.0,3.0,95,0.00,,,0.00,Wunderground v.1.15,2017-10-17 09:57:00,
2017-10-17 06:03:00,38.4,37.1,30.35,SSE,147,0.0,3.0,95,0.00,,,0.00,Wunderground v.1.15,2017-10-17 10:03:00,
2017-10-17 06:09:00,38.2,36.9,30.35,SSE,147,0.0,3.0,95,0.00,,,0.00,Wunderground v.1.15,2017-10-17 10:09:00,
2017-10-17 06:14:00,38.1,36.8,30.35,SSE,147,0.0,0.0,95,0.00,,,0.00,Wunderground v.1.15,2017-10-17 10:14:00,
2017-10-17 06:19:00,37.9,36.6,30.35,SSE,147,0.0,0.0,95,0.00,,,0.00,Wunderground v.1.15,2017-10-17 10:19:00,
2017-10-17 06:24:00,37.7,36.4,30.35,SSE,147,0.0,1.0,95,0.00,,,0.00,Wunderground v.1.15,2017-10-17 10:24:00,
2017-10-17 06:30:00,37.8,36.5,30.35,SSE,147,1.0,2.0,95,0.00,,,0.00,Wunderground v.1.15,2017-10-17 10:30:00,
2017-10-17 06:35:00,37.9,36.6,30.35,SSE,147,3.0,3.0,95,0.00,,,0.00,Wunderground v.1.15,2017-10-17 10:35:00,
2017-10-17 06:40:00,37.9,36.6,30.35,SSE,147,2.0,2.0,95,0.00,,,0.00,Wunderground v.1.15,2017-10-17 10:40:00,
2017-10-17 06:45:00,37.7,36.4,30.35,SSE,147,2.0,3.0,95,0.00,,,0.00,Wunderground v.1.15,2017-10-17 10:45:00,
2017-10-17 06:50:00,37.8,36.5,30.36,SSE,147,2.0,2.0,95,0.00,,,0.00,Wunderground v.1.15,2017-10-17 10:50:00,
2017-10-17 06:55:00,37.7,36.4,30.36,SSE,147,1.0,2.0,95,0.00,,,0.00,Wunderground v.1.15,2017-10-17 10:55:00,
2017-10-17 07:00:00,37.7,36.4,30.36,SSE,147,0.0,0.0,95,0.00,,,0.00,Wunderground v.1.15,2017-10-17 11:00:00,
2017-10-17 07:05:00,37.5,36.2,30.36,SSE,147,0.0,0.0,95,0.00,,,0.00,Wunderground v.1.15,2017-10-17 11:05:00,
2017-10-17 07:11:00,37.4,36.1,30.37,SSE,147,0.0,0.0,95,0.00,,,0.00,Wunderground v.1.15,2017-10-17 11:11:00,
2017-10-17 07:16:00,37.4,36.1,30.37,SSE,147,0.0,0.0,95,0.00,,,0.00,Wunderground v.1.15,2017-10-17 11:16:00,
2017-10-17 07:21:00,37.5,36.2,30.37,SSE,147,0.0,0.0,95,0.00,,,0.00,Wunderground v.1.15,2017-10-17 11:21:00,
2017-10-17 07:26:00,37.3,36.0,30.37,SSE,147,0.0,0.0,95,0.00,,,0.00,Wunderground v.1.15,2017-10-17 11:26:00,
2017-10-17 07:32:00,37.1,35.8,30.37,SSE,147,0.0,0.0,95,0.00,,,0.00,Wunderground v.1.15,2017-10-17 11:32:00,
2017-10-17 07:38:00,37.2,35.9,30.37,SSE,147,0.0,2.0,95,0.00,,,0.00,Wunderground v.1.15,2017-10-17 11:38:00,
2017-10-17 07:43:00,37.3,36.0,30.37,SSE,147,1.0,2.0,95,0.00,,,0.00,Wunderground v.1.15,2017-10-17 11:43:00,